Weather History for KFLY - November, 2013

Change the Weather History Date:

Sunday, November 24, 2013

  Actual Average (KCOS) Record (KCOS)
Temperature  
Mean Temperature 20 °F 34 °F  
Max Temperature 22 °F 47 °F 77 °F (1990)
Min Temperature 18 °F 22 °F -3 °F (1918)
Degree Days  
Heating Degree Days 45 31  
Month to date heating degree days 615  
Since 1 July heating degree days 1289  
Cooling Degree Days 0 0  
Month to date cooling degree days 0  
Year to date cooling degree days 455  
Moisture  
Dew Point 19 °F    
Average Humidity 96    
Maximum Humidity 99    
Minimum Humidity 95    
Precipitation  
Precipitation 0.00 in 0.02 in 0.43 in (1922)
Month to date precipitation 0.33  
Year to date precipitation 16.13  
Snow  
Snow 0.00 in 0.10 in 3.50 in (1980)
Month to date snowfall 3.5  
Since 1 July snowfall 6.6  
Since 1 September snowfall 6.6  
Snow Depth -    
Sea Level Pressure  
Sea Level Pressure 30.17 in    
Wind  
Wind Speed 11 mph (SSW)    
Max Wind Speed 14 mph    
Max Gust Speed 18 mph    
Visibility 2 miles    
Events Fog , Snow    
T = Trace of Precipitation, MM = Missing Value Source: NWS Daily Summary

Daily Weather History Graph

Daily Weather History Graph

Search for Another Location

Airport or City:

Trip Planner

Search our weather history database for the weather conditions in past years. The results will help you decide how hot, cold, wet, or windy it might be!

Date:

Astronomy

Nov. 24, 2013 Rise Set
Actual Time 6:51 AM MST 4:38 PM MST
Civil Twilight 6:22 AM MST 5:07 PM MST
Nautical Twilight 5:49 AM MST 5:40 PM MST
Astronomical Twilight 5:17 AM MST 6:12 PM MST
Moon 11:05 PM MST 11:41 AM MST
Length of Visible Light 10h 45m
Length of Day
9h 47m
Waning Gibbous, 60% of the Moon is Illuminated
Nov 24
Waning Gibbous
Nov 25
Last Quarter
Dec 2
New
Dec 9
First Quarter
Dec 17
Full

Hourly Weather History & Observations

Time (MST) Temp. Windchill Dew Point Humidity Pressure Visibility Wind Dir Wind Speed Gust Speed Precip Events Conditions
12:09 AM 20.1 °F - 19.8 °F 99% 30.31 in 1.0 mi North - - N/A   Overcast
12:30 AM 20.1 °F 7.5 °F 19.4 °F 97% 30.30 in 0.5 mi South 12.7 mph - N/A Fog Light Freezing Fog
12:49 AM 20.3 °F 9.0 °F 19.9 °F 99% 30.29 in 1.2 mi South 10.4 mph - N/A   Overcast
1:08 AM 20.1 °F - 19.4 °F 97% 30.28 in 0.8 mi North - - N/A   Overcast
1:30 AM 19.9 °F - 19.4 °F 98% 30.29 in 0.2 mi North - - N/A Fog Light Freezing Fog
1:49 AM 19.9 °F - 19.4 °F 98% 30.28 in 0.2 mi North - - N/A Snow Light Snow
2:10 AM 20.1 °F - 19.4 °F 97% 30.27 in 0.5 mi North - - N/A Fog Light Freezing Fog
2:29 AM 19.9 °F - 19.2 °F 97% 30.26 in 0.8 mi North - - N/A   Overcast
2:49 AM 20.3 °F - 19.4 °F 96% 30.24 in 0.2 mi North - - N/A Fog Light Freezing Fog
3:09 AM 20.1 °F - 19.4 °F 97% 30.24 in 0.2 mi North - - N/A Fog Light Freezing Fog
3:30 AM 19.9 °F 7.9 °F 19.2 °F 97% 30.23 in 0.2 mi SSW 11.5 mph 18.4 mph N/A Fog Light Freezing Fog
3:50 AM 19.9 °F 7.3 °F 19.2 °F 97% 30.22 in 0.2 mi SSW 12.7 mph 18.4 mph N/A Fog Light Freezing Fog
4:10 AM 19.8 °F 6.5 °F 19.0 °F 97% 30.21 in 0.2 mi SSW 13.8 mph - N/A Snow Light Snow
4:30 AM 19.4 °F 6.6 °F 18.9 °F 98% 30.20 in 0.2 mi SSW 12.7 mph 18.4 mph N/A Snow Light Snow
4:49 AM 19.4 °F 7.9 °F 18.5 °F 96% 30.19 in 0.2 mi SSW 10.4 mph - N/A Snow Light Snow
5:10 AM 19.4 °F 8.6 °F 18.5 °F 96% 30.17 in 0.2 mi SSW 9.2 mph - N/A Snow Light Snow
5:29 AM 19.4 °F 8.6 °F 18.5 °F 96% 30.16 in 0.2 mi SSW 9.2 mph - N/A Fog Light Freezing Fog
5:49 AM 19.2 °F 10.2 °F 18.3 °F 96% 30.16 in 0.5 mi South 6.9 mph - N/A Fog Light Freezing Fog
6:10 AM 19.0 °F - 18.1 °F 96% 30.16 in 1.0 mi North - - N/A   Overcast
6:31 AM 18.9 °F 8.8 °F 18.0 °F 96% 30.16 in 1.2 mi SSW 8.1 mph - N/A   Overcast
6:51 AM 18.5 °F 9.3 °F 17.4 °F 96% 30.14 in 4.0 mi South 6.9 mph - N/A   Overcast
7:10 AM 18.0 °F 6.9 °F 16.7 °F 95% 30.14 in 3.0 mi South 9.2 mph - N/A   Overcast
7:30 AM 18.0 °F 7.7 °F 16.7 °F 95% 30.13 in 3.0 mi SSW 8.1 mph - N/A   Overcast
7:50 AM 18.3 °F 7.3 °F 17.2 °F 96% 30.13 in 2.5 mi SSW 9.2 mph - N/A   Overcast
8:10 AM 18.5 °F 7.5 °F 17.6 °F 96% 30.12 in 1.8 mi SSW 9.2 mph - N/A   Overcast
8:30 AM 18.9 °F 10.8 °F 18.0 °F 96% 30.12 in 1.0 mi SSW 5.8 mph - N/A   Overcast
8:50 AM 19.2 °F - 18.3 °F 96% 30.12 in 1.5 mi North - - N/A   Overcast
9:10 AM 19.6 °F 11.7 °F 18.5 °F 96% 30.10 in 3.0 mi WSW 5.8 mph - N/A   Overcast
9:30 AM 20.7 °F - 19.8 °F 96% 30.10 in 4.0 mi North - - N/A   Overcast
9:50 AM 21.7 °F - 20.8 °F 96% 30.09 in 5.0 mi North - - N/A   Overcast
10:10 AM 22.1 °F - 21.2 °F 96% 30.08 in 5.0 mi North - - N/A   Overcast
10:30 AM 21.7 °F - 20.7 °F 96% 30.08 in 5.0 mi North - - N/A   Overcast
10:50 AM 21.2 °F - 20.1 °F 96% 30.06 in 4.0 mi North - - N/A   Overcast
11:10 AM 21.6 °F - 20.5 °F 96% 30.05 in 5.0 mi North - - N/A   Overcast
11:30 AM 21.7 °F - 20.7 °F 96% 30.03 in 5.0 mi North - - N/A   Overcast
11:50 AM 22.1 °F - 21.2 °F 96% 30.02 in 5.0 mi North - - N/A   Overcast
12:00 PM 22.1 °F - 21.2 °F 96% 30.02 in 5.0 mi North - - N/A   Overcast